Theta_e
314 313 313 314 315 316 316 318 318 319 321 323 324 321 321 321 322 322 320 322 322 320 317 314 311 311 310 309 309 309 309 310 312 308 307 304 302 302 302 302 301 301 301
313 314 313 313 314 314 315 315 313 313 314 315 316 315 314 314 315 317 316 315 311 309 308 307 305 304 303 303 303 303 302 302 303 304 300 299 299 300 299 299 298 298 298
313 313 312 312 313 314 309 307 306 305 306 307 308 309 311 312 311 309 309 308 306 304 303 302 302 302 301 300 300 299 299 298 298 298 297 297 298 298 297 298 298 297 297
312 312 312 311 308 306 305 304 305 304 304 305 305 306 308 310 310 309 308 307 305 304 303 301 300 299 298 298 298 298 297 296 296 296 296 296 297 297 297 297 297 297 297
311 311 311 310 307 306 304 304 304 304 304 304 306 305 306 307 308 308 306 304 301 300 300 299 298 299 300 300 299 298 297 296 295 295 295 295 296 296 297 297 297 297 298
309 310 311 311 307 304 303 302 302 301 300 299 300 301 302 302 305 305 303 301 299 297 296 295 295 295 296 298 299 299 298 297 295 296 296 296 297 296 297 298 298 298 299
308 309 308 308 308 304 300 299 298 297 296 295 295 297 298 299 300 300 299 297 295 294 294 294 294 294 294 295 296 296 297 298 298 297 297 297 298 298 298 298 299 299 299
307 305 304 306 306 303 300 298 297 296 296 295 295 295 296 297 297 296 296 295 294 294 293 293 293 294 294 295 296 297 297 298 298 298 299 299 298 299 299 299 299 300 301
303 302 302 305 305 304 300 298 297 296 295 294 295 295 295 295 295 295 294 294 294 293 293 294 294 294 295 296 297 298 299 300 300 299 299 299 299 299 300 300 300 301 301
301 299 303 303 304 302 298 296 295 295 295 295 295 295 296 296 297 296 295 295 295 294 294 294 294 295 296 297 298 299 299 300 301 301 300 300 299 299 299 301 301 301 301
299 298 301 302 301 301 299 296 295 295 296 296 296 296 297 297 297 297 297 296 294 294 294 295 295 296 297 298 300 300 300 301 301 302 302 301 301 300 300 300 300 301 301
300 299 297 297 297 299 300 297 297 297 298 298 297 297 298 297 297 297 297 297 295 295 296 297 297 299 300 301 301 302 302 302 302 302 301 301 301 301 300 300 300 300 300
300 298 296 296 296 296 297 298 299 299 299 298 298 298 299 299 298 297 297 298 298 298 298 299 300 301 302 302 302 302 303 302 302 301 300 300 300 300 299 299 299 299 299
300 298 297 297 298 298 298 299 299 299 299 299 299 299 299 300 300 299 299 299 299 300 300 301 302 302 302 302 302 302 302 301 301 301 300 300 300 299 299 299 299 298 298
300 299 297 297 298 298 299 300 300 300 300 300 301 301 300 300 301 301 301 301 302 302 303 303 302 302 302 302 302 302 301 301 300 300 299 299 299 298 298 298 298 298 298
300 299 299 298 298 299 299 299 299 300 301 301 302 302 303 303 303 303 303 303 303 304 303 301 301 301 301 301 302 302 301 300 300 300 299 299 298 298 298 298 298 298 298
301 300 299 300 299 299 299 299 299 300 302 302 303 304 304 304 305 304 305 305 305 304 303 302 302 302 302 302 301 301 301 301 301 300 300 299 299 298 298 298 298 298 298
305 302 301 301 300 300 300 299 300 300 301 302 303 304 305 305 306 305 305 305 304 305 304 304 304 304 304 304 303 302 301 301 301 300 299 299 299 299 298 298 299 299 299
305 303 300 300 300 300 300 300 300 301 301 301 303 305 305 305 305 306 305 304 303 303 302 302 302 303 303 303 304 303 303 303 302 302 301 300 300 300 300 300 300 299 299
301 300 300 300 301 300 300 301 301 302 301 301 302 303 304 305 305 304 306 304 303 302 301 301 301 301 301 301 301 302 303 304 304 303 303 302 301 300 300 300 300 299 298
300 300 300 300 301 301 302 302 302 302 302 303 303 303 304 305 304 302 303 302 300 300 299 299 299 300 300 301 301 301 302 302 304 305 305 305 303 303 301 301 301 299 298
300 300 300 301 301 302 302 302 302 303 303 302 303 303 305 305 303 301 300 300 299 299 299 299 299 299 298 299 300 301 302 303 303 305 306 306 306 305 304 303 301 300 299
300 300 300 301 301 302 302 302 303 303 303 303 303 303 303 303 301 300 300 300 300 300 299 299 299 299 298 298 299 300 302 303 304 305 306 306 306 305 305 302 301 300 300
299 300 301 301 301 301 301 301 302 303 302 302 303 302 302 302 302 302 302 301 301 300 299 299 299 298 298 298 298 299 302 303 304 305 305 307 307 305 304 302 301 301 300
299 299 300 300 301 301 301 301 302 302 301 301 301 301 300 300 300 300 299 299 299 299 299 299 299 298 298 298 298 299 302 303 304 305 305 305 306 306 304 303 302 301 301
299 299 299 299 300 300 300 300 301 301 300 300 300 300 299 299 299 298 298 298 298 299 299 299 298 298 298 298 298 299 301 303 304 305 305 304 305 306 304 304 302 302 301
Wind_Speed
30 31 34 35 34 30 26 28 28 25 21 15 9 6 4 4 6 6 5 4 5 8 11 14 16 15 16 14 11 10 9 4 2 2 3 3 6 9 10 10 10 12 14
27 29 31 33 34 28 26 23 21 16 15 10 6 5 6 6 5 1 5 9 14 17 18 19 18 16 17 14 12 11 9 7 3 1 1 3 3 2 4 8 7 9 11
27 27 30 30 31 25 21 23 23 23 23 21 20 18 16 14 15 15 18 18 22 25 22 21 18 15 15 12 10 7 6 6 6 3 2 3 2 5 7 5 6 7 9
25 22 25 26 25 25 23 24 25 26 26 25 23 20 18 17 17 18 20 18 18 22 20 18 17 16 12 9 6 5 6 7 7 5 3 3 2 5 5 5 10 11 10
23 22 24 20 20 25 26 26 26 27 26 25 23 23 20 17 14 10 12 15 16 19 20 17 14 12 8 6 6 8 7 7 7 6 5 1 2 4 3 5 7 10 5
20 21 20 20 18 20 23 25 28 27 27 25 24 23 22 22 14 11 12 16 18 19 16 13 9 10 9 8 9 7 9 7 7 5 1 1 1 2 4 8 8 3 3
18 20 22 21 17 17 18 23 26 26 26 28 26 23 24 23 19 19 18 19 19 17 15 13 13 12 9 8 8 7 7 6 4 1 0 2 2 4 6 8 8 5 3
17 19 22 20 19 15 20 23 25 24 25 26 26 25 26 22 19 18 17 17 16 16 17 14 12 12 13 11 9 7 6 6 3 2 4 5 4 4 5 6 9 9 4
19 19 20 18 16 14 20 20 19 21 23 24 23 24 24 22 18 16 14 13 14 14 13 12 14 13 11 10 10 10 8 9 7 1 1 2 2 2 3 4 8 10 3
18 17 19 17 16 17 17 20 19 19 19 19 21 22 21 21 18 17 16 11 12 10 11 11 12 12 11 11 10 11 12 12 11 9 7 5 5 4 4 7 6 7 4
18 20 20 15 16 14 16 20 20 20 20 19 19 19 21 21 20 18 18 15 12 11 12 14 13 12 10 9 10 12 10 9 10 11 12 11 9 7 6 6 6 5 6
18 22 22 19 16 15 14 16 19 19 20 19 20 19 21 21 19 19 17 17 15 14 14 13 11 10 10 11 13 12 13 15 15 17 17 15 11 12 11 10 8 6 5
18 23 23 22 23 22 23 20 21 22 22 18 15 15 19 22 23 19 17 16 15 15 12 11 11 13 15 16 16 15 17 16 15 15 14 15 14 9 9 10 9 10 12
18 21 23 24 23 23 22 20 21 23 19 18 18 18 18 21 21 18 18 17 15 15 14 16 17 17 18 18 19 19 18 16 16 14 13 11 10 13 14 9 8 10 15
14 17 19 20 20 19 19 19 20 21 21 20 21 18 20 19 18 17 18 18 18 18 20 22 22 22 21 20 20 20 19 18 17 16 16 15 14 13 12 11 12 14 12
11 13 15 15 13 12 13 14 14 16 18 20 21 21 21 19 18 20 20 20 18 21 21 20 19 20 20 19 18 17 19 18 17 17 16 15 15 13 12 12 12 12 11
8 9 9 10 10 9 12 14 13 16 17 21 22 22 23 21 21 21 22 24 25 25 21 20 19 20 20 20 18 16 15 18 17 15 16 14 14 14 14 14 13 13 13
10 8 7 10 11 9 9 12 14 14 17 20 21 21 20 21 22 20 23 26 25 24 20 18 18 18 16 15 15 15 13 13 16 16 17 17 16 15 14 14 14 13 13
13 12 11 11 11 11 13 13 13 15 16 17 21 21 21 19 21 23 25 25 21 22 24 23 21 19 17 18 15 7 7 9 9 10 10 12 12 12 13 13 12 12 13
15 12 11 12 11 13 14 15 14 16 17 16 20 20 21 21 23 24 24 24 24 24 25 26 26 24 23 21 18 16 11 5 6 7 7 7 7 11 10 10 10 10 11
13 12 11 10 11 12 14 15 15 17 18 18 17 17 15 18 20 23 22 23 23 24 24 25 26 27 27 27 26 21 17 12 8 5 5 4 3 4 3 6 7 7 8
13 13 11 10 11 13 13 14 16 20 20 19 18 17 17 18 19 22 22 22 22 22 23 24 25 26 26 25 25 24 22 18 13 10 8 6 5 4 5 6 7 7 8
14 12 9 10 11 10 11 12 15 18 20 20 18 18 19 19 19 20 20 21 22 23 23 23 24 26 28 26 24 22 22 20 16 11 9 7 6 6 7 8 9 9 10
10 9 8 9 8 9 11 12 13 15 17 19 20 19 18 18 17 17 17 19 20 21 21 21 22 24 27 28 25 23 21 18 15 10 7 6 4 7 9 10 10 10 11
9 7 6 8 8 9 10 11 12 14 15 15 15 15 16 16 17 18 18 18 19 21 21 20 21 22 25 28 27 24 21 17 13 13 10 5 4 6 8 10 11 12 12
8 6 4 3 7 9 10 10 10 11 12 12 12 12 13 15 16 18 19 19 19 19 19 19 19 21 24 26 28 26 22 19 14 12 10 6 4 7 8 9 10 9 10
Wind_Direction
3 3 2 359 352 347 343 343 335 327 325 319 314 274 267 279 291 308 310 248 163 134 119 111 103 113 105 99 96 91 85 92 106 129 167 259 307 317 308 304 306 301 297
5 5 7 2 355 348 344 351 354 0 13 23 41 37 34 36 53 105 99 113 99 105 110 111 98 95 87 80 73 71 65 60 53 39 316 315 354 354 325 317 315 314 311
8 10 9 3 359 10 27 34 39 42 47 55 57 57 57 65 71 79 92 93 100 94 85 82 81 79 76 69 63 69 75 71 71 62 347 351 5 16 350 345 344 327 319
17 13 9 13 31 42 46 51 57 57 55 54 54 56 59 68 72 77 76 81 85 85 88 77 67 56 56 55 53 72 91 91 83 80 43 18 11 358 1 342 330 340 332
21 15 13 28 46 63 61 62 60 58 56 51 47 42 38 34 34 62 80 90 96 96 82 74 61 62 52 65 84 107 101 95 90 84 66 17 350 332 321 322 327 338 9
17 9 10 19 50 55 62 65 63 56 52 48 45 41 37 39 41 52 84 84 77 70 68 64 59 57 74 78 79 84 75 87 99 90 169 280 297 343 9 344 328 333 340
21 13 19 27 47 57 59 58 53 51 52 50 48 50 47 44 52 63 74 74 70 64 52 50 56 61 64 75 83 95 88 77 74 76 215 292 333 332 329 340 339 324 295
25 18 22 33 40 60 60 57 53 50 52 51 55 59 58 51 52 55 60 62 63 56 51 58 59 61 55 65 76 82 63 34 9 329 275 264 268 309 306 299 329 348 22
29 19 28 38 53 69 58 49 47 54 59 58 59 60 58 54 49 48 50 56 58 58 55 56 49 56 56 55 53 37 21 27 37 14 287 53 78 119 49 20 28 29 3
33 35 45 56 65 66 71 52 56 58 58 57 53 47 46 46 46 49 48 51 55 56 56 48 49 49 45 37 23 12 16 20 27 50 68 72 79 104 73 47 44 38 9
53 51 53 59 63 77 69 52 60 62 60 54 50 47 41 39 37 35 41 50 55 57 53 43 45 41 35 20 18 22 21 28 48 58 59 60 65 69 61 34 22 24 1
62 57 53 53 60 70 75 66 61 53 50 43 45 44 43 45 43 44 49 51 55 56 46 40 36 27 27 32 39 44 56 59 63 64 53 51 63 69 67 60 54 51 33
71 64 63 63 71 74 72 65 57 51 43 31 26 26 27 39 40 42 48 53 58 53 41 41 38 41 54 57 53 55 57 57 58 60 60 62 66 60 74 63 62 67 65
78 73 78 76 71 69 63 55 43 37 30 24 23 19 21 31 35 38 41 50 53 52 52 56 61 62 60 57 56 56 57 52 58 60 65 64 65 62 61 66 68 68 61
88 83 83 82 75 70 59 50 49 42 34 30 31 34 27 30 35 40 43 46 52 54 60 55 46 45 47 49 50 50 50 52 54 58 58 57 61 65 64 68 74 77 72
107 95 87 81 74 67 52 49 41 38 36 42 41 45 51 45 43 44 52 57 60 61 53 44 43 44 41 41 45 50 50 49 53 58 58 60 60 64 68 71 77 79 72
136 117 93 71 54 51 48 47 31 44 49 48 49 52 49 46 47 70 65 58 60 64 54 48 47 43 41 45 49 53 51 51 51 52 55 60 67 73 66 68 72 73 70
126 118 87 63 60 59 58 50 49 40 33 38 52 44 42 52 53 54 60 54 48 47 43 41 38 40 37 35 39 46 53 54 59 60 63 69 72 73 70 72 75 69 69
113 111 95 73 68 73 69 55 50 48 43 42 52 45 50 53 52 51 53 52 40 33 36 37 38 39 33 27 25 18 29 32 31 43 51 61 66 73 74 75 74 75 82
112 106 88 73 71 77 62 52 50 50 52 45 45 35 40 46 37 42 46 47 46 42 40 40 38 37 34 30 28 27 26 8 4 20 38 48 74 76 79 70 68 79 81
117 100 84 82 72 74 62 59 56 52 52 52 46 43 45 44 43 45 48 44 44 43 41 39 36 33 28 26 26 29 32 32 26 7 344 341 37 57 80 66 62 80 88
117 97 92 78 89 81 65 57 61 58 54 52 51 54 53 56 53 52 52 50 47 43 39 36 34 31 27 22 18 18 22 21 22 23 25 37 51 56 71 92 88 93 96
114 100 97 83 90 79 65 57 60 59 56 53 55 56 57 58 58 55 50 44 39 35 32 31 29 26 23 19 20 18 15 14 14 16 24 34 59 72 97 105 95 101 111
105 107 93 84 74 64 64 62 65 64 62 58 57 58 57 57 52 45 38 31 25 22 22 23 24 23 21 19 19 19 17 10 17 25 15 34 61 93 110 110 107 111 116
116 112 99 72 63 58 60 61 60 63 61 56 54 52 49 45 39 31 24 19 18 20 20 20 21 20 20 20 19 18 18 20 19 14 11 43 87 118 123 119 126 128 134
107 121 101 80 49 54 58 55 51 48 43 40 42 40 36 33 27 23 18 14 15 16 16 18 21 21 18 17 17 17 20 19 22 17 22 62 91 126 135 131 139 143 152